[[{"header":{"parameterUnit":"m.s-1","parameterCategory":2,"la1":30.2991,"la2":30.254,"lo1":-89.0895,"lo2":-89.0444,"dy":0.0017,"dx":0.0017,"nx":28,"ny":28,"refTime":"2023-10-21T03:00:00:Z","depth":"0","parameterNumber":2,"parameterNumberName":"U-component_of_CURRENTS"},"data":[0,0,0,0,0,0,0,0,0,0,0,0,0,0,0,0,0,0,0,0,0,0,0,0,0,0,0,0,0,0,0,0,0,0,0,0,0,0,0,0,0,0,0,0,0,0,0,0,0,0,0,0,0,0,0,0,0,0,0.351,0.3512,0,0.3636,0.3637,0.3638,0.3665,0.3664,0.3663,0.3662,0.3718,0.3721,0.3723,0,0,0,0,0,0,0,0,0,0,0,0,0,0.3357,0.3359,0.351,0.3512,0.3514,0.3636,0.3637,0.3639,0.3665,0.3664,0.3663,0.3662,0.3718,0.372,0.3723,0,0,0,0,0,0,0,0,0,0,0,0,0,0.3445,0.336,0.351,0.3543,0.3547,0.3635,0.3637,0.3639,0.3665,0.3664,0.3663,0.3662,0.3717,0.372,0.3723,0.3767,0,0,0.3733,0.3735,0,0,0,0,0,0,0,0,0.344,0.3451,0.3536,0.3541,0.3546,0.3635,0.3604,0.3679,0.3665,0.3618,0.3662,0.3661,0.3686,0.3692,0.3717,0.377,0.3772,0.3734,0.3736,0.3737,0.3738,0,0,0,0,0,0,0,0.3434,0.3446,0.3558,0.3538,0.3544,0.3573,0.3584,0.3619,0.3655,0.3622,0.3625,0.3642,0.3688,0.3713,0.3718,0.3773,0.3734,0.3737,0.3739,0.374,0.3915,0.3918,0,0,0,0,0,0,0.342,0.344,0.3554,0.3562,0.3491,0.3577,0.3588,0.3606,0.3656,0.3663,0.3643,0.3643,0.3708,0.3714,0.372,0.3825,0.3737,0.374,0.3742,0.3912,0.3916,0.3919,0,0,0,0,0,0,0.3417,0.3429,0.3549,0.3505,0.3522,0.358,0.36,0.3609,0.3636,0.3673,0.3678,0.366,0.3708,0.3715,0.3775,0.3825,0.3742,0.3745,0.3909,0.3913,0.3917,0.4002,0,0,0,0,0,0,0.3412,0.3427,0.3441,0.3504,0.3524,0.3624,0.3602,0.3612,0.3649,0.365,0.3689,0.3693,0.3707,0.377,0.3778,0.3828,0.3747,0.3906,0.3911,0.3916,0.3996,0.4009,0.402,0,0,0,0,0,0.3406,0.3447,0.3441,0.3456,0.354,0.3627,0.3641,0.3676,0.365,0.3688,0.371,0.3692,0.3807,0.3775,0.3784,0.3836,0.3904,0.391,0.3915,0.3991,0.4006,0.4019,0,0,0,0,0,0,0.3429,0.3455,0.345,0.3507,0.3565,0.3632,0.3675,0.3678,0.3726,0.3726,0.3728,0.3737,0.3816,0.3812,0.3776,0.3902,0.3852,0.386,0.3906,0.3921,0.3932,0.4017,0.375,0,0,0,0,0,0.3429,0.3452,0.3495,0.3554,0.357,0.3613,0.3649,0.3678,0.3725,0.3744,0.3766,0.3797,0.385,0.387,0.392,0.398,0.4043,0.4019,0.4031,0.4041,0.4118,0.4236,0.4266,0.3938,0.3938,0.3938,0,0,0.347,0.3482,0.3505,0.3558,0.3597,0.3678,0.3633,0.3709,0.3787,0.3744,0.3841,0.3847,0.3879,0.3964,0.3995,0.3962,0.4165,0.4048,0.4056,0.413,0.4246,0.4278,0.4307,0.3942,0.3942,0.3941,0,0,0.359,0.3556,0.3625,0.3658,0.3716,0.3738,0.3755,0.3816,0.3842,0.3926,0.3923,0.3969,0.4023,0.4078,0.4104,0.421,0.423,0.4196,0.4319,0.443,0.4459,0.4486,0.4597,0.4633,0.4191,0.4191,0.4191,0,0.3653,0.3718,0.3671,0.3748,0.3796,0.3764,0.3875,0.3906,0.3986,0.4027,0.3974,0.4103,0.41,0.4237,0.4271,0.4243,0.4309,0.4253,0.4449,0.4476,0.4502,0.461,0.4648,0.4196,0.4196,0.4195,0.4195,0,0.3829,0.387,0.3915,0.398,0.4025,0.4109,0.4131,0.4175,0.4166,0.4201,0.4308,0.4312,0.4392,0.4377,0.4359,0.4534,0.4523,0.4454,0.4415,0.4541,0.4645,0.4684,0.4203,0.4201,0.42,0.4199,0,0,0.4032,0.4036,0.4061,0.4088,0.4144,0.4198,0.4305,0.4399,0.4463,0.45,0.4603,0.4675,0.4646,0.4681,0.4646,0.4731,0.493,0.4677,0.468,0.4795,0.5202,0.5124,0.5158,0.4888,0.4896,0.4901,0.5198,0,0.4206,0.4337,0.4312,0.4452,0.4513,0.4488,0.4579,0.4646,0.4667,0.474,0.4752,0.4826,0.4765,0.478,0.4873,0.4907,0.5039,0.4859,0.5062,0.507,0.499,0.5203,0.4871,0.5103,0.5236,0.5242,0.5247,0,0.4412,0.4453,0.4595,0.4623,0.4651,0.4725,0.482,0.4898,0.4975,0.4986,0.5066,0.5051,0.5188,0.5077,0.5311,0.5196,0.5257,0.5279,0.5288,0.5233,0.5066,0.5002,0.5168,0.5001,0.5306,0.5301,0.5297,0,0.4546,0.4651,0.4741,0.4763,0.4809,0.4868,0.4905,0.4989,0.5033,0.5141,0.517,0.5318,0.5353,0.5491,0.5515,0.5446,0.5743,0.5633,0.5655,0.5648,0.5424,0.5385,0.5465,0.5878,0.5877,0.5877,0.5876,0,0.4706,0.4777,0.4792,0.4831,0.492,0.4952,0.5057,0.5095,0.518,0.5224,0.529,0.535,0.5459,0.5582,0.5639,0.5777,0.586,0.5781,0.5757,0.5439,0.54,0.5286,0.5219,0.5888,0.5885,0.5883,0.5881,0,0.4781,0.4817,0.4883,0.4941,0.496,0.5008,0.5066,0.5121,0.5221,0.5284,0.5317,0.543,0.5591,0.5701,0.5899,0.5911,0.5877,0.6072,0.5692,0.5621,0.5471,0.542,0.5412,0.5271,0.6202,0.6203,0.6203,0,0.48,0.4853,0.4904,0.4914,0.4918,0.4992,0.5017,0.5112,0.5152,0.5303,0.5314,0.5504,0.5583,0.5867,0.5917,0.609,0.5887,0.5892,0.5721,0.5519,0.5446,0.5233,0.5098,0.5454,0.5448,0.5444,0.544,0,0.4796,0.4815,0.4838,0.4869,0.4889,0.492,0.4971,0.5003,0.5103,0.5187,0.5286,0.5388,0.5606,0.5602,0.5803,0.5848,0.5566,0.5805,0.5686,0.5002,0.469,0.4514,0.521,0.5397,0.5402,0.5405,0.5407,0.5409,0.4742,0.4739,0.4765,0.4784,0.4803,0.4809,0.4802,0.4865,0.4924,0.4965,0.5151,0.5197,0.5255,0.5481,0.5508,0.5302,0.5367,0.5124,0.5129,0.4972,0.4684,0.5321,0.5406,0.541,0.5414,0.5417,0.542,0,0.465,0.4659,0.4671,0.4674,0.4654,0.4707,0.4722,0.4689,0.4694,0.4766,0.4856,0.4801,0.4802,0.4826,0.4746,0.4622,0.44,0.449,0.408,0.4023,0.4664,0.4472,0.4244,0.4244,0.4245,0.4245,0.4245,0.4245,0.4598,0.4576,0.4591,0.4527,0.4523,0.444,0.4424,0.4379,0.4395,0.4257,0.4164,0.4214,0.4266,0.4275,0.4106,0.4023,0.3752,0.3556,0.3674,0.4061,0.4116,0.4169,0.3972,0.3643,0.3642,0.2751,0.2744,0.2739]},{"header":{"parameterUnit":"m.s-1","parameterCategory":2,"la1":30.2991,"la2":30.254,"lo1":-89.0895,"lo2":-89.0444,"dy":0.0017,"dx":0.0017,"nx":28,"ny":28,"refTime":"2023-10-21T03:00:00:Z","depth":"0","parameterNumber":3,"parameterNumberName":"V-component_of_CURRENTS"},"data":[0,0,0,0,0,0,0,0,0,0,0,0,0,0,0,0,0,0,0,0,0,0,0,0,0,0,0,0,0,0,0,0,0,0,0,0,0,0,0,0,0,0,0,0,0,0,0,0,0,0,0,0,0,0,0,0,0,0,-0.1061,-0.1062,0,-0.1156,-0.1157,-0.1159,-0.1243,-0.1244,-0.1245,-0.1246,-0.135,-0.1351,-0.1353,0,0,0,0,0,0,0,0,0,0,0,0,0,-0.0964,-0.0965,-0.1061,-0.1062,-0.1063,-0.1156,-0.1158,-0.1159,-0.1243,-0.1244,-0.1245,-0.1246,-0.1349,-0.1351,-0.1353,0,0,0,0,0,0,0,0,0,0,0,0,0,-0.1027,-0.0965,-0.106,-0.1116,-0.1122,-0.1156,-0.1158,-0.1159,-0.1242,-0.1244,-0.1245,-0.1247,-0.1348,-0.1351,-0.1354,-0.134,0,0,-0.1362,-0.1363,0,0,0,0,0,0,0,0,-0.1023,-0.103,-0.1107,-0.1113,-0.1119,-0.119,-0.1162,-0.122,-0.1242,-0.1196,-0.1246,-0.1248,-0.1296,-0.1303,-0.1317,-0.1345,-0.1349,-0.1362,-0.1364,-0.1365,-0.1366,0,0,0,0,0,0,0,-0.1018,-0.1027,-0.1098,-0.1108,-0.1116,-0.1141,-0.1152,-0.1173,-0.1236,-0.1201,-0.1207,-0.1218,-0.13,-0.1314,-0.132,-0.1351,-0.1362,-0.1364,-0.1366,-0.1367,-0.1366,-0.1364,0,0,0,0,0,0,-0.1005,-0.1022,-0.1095,-0.1101,-0.1074,-0.1142,-0.1154,-0.1165,-0.1236,-0.1248,-0.1216,-0.1221,-0.1309,-0.1317,-0.1324,-0.127,-0.1365,-0.1367,-0.1369,-0.1368,-0.1366,-0.1364,0,0,0,0,0,0,-0.1003,-0.1011,-0.1091,-0.1064,-0.1076,-0.1142,-0.1154,-0.1166,-0.1179,-0.1248,-0.1261,-0.1217,-0.131,-0.132,-0.1333,-0.1277,-0.1369,-0.1371,-0.137,-0.1367,-0.1365,-0.119,0,0,0,0,0,0,-0.1,-0.1009,-0.0997,-0.1063,-0.1077,-0.1087,-0.1153,-0.1167,-0.1184,-0.1191,-0.1253,-0.1264,-0.1312,-0.1328,-0.1336,-0.1282,-0.1373,-0.1372,-0.1368,-0.1365,-0.1198,-0.1182,-0.1168,0,0,0,0,0,-0.0996,-0.0957,-0.0995,-0.1004,-0.1063,-0.1085,-0.1093,-0.1146,-0.1182,-0.1167,-0.1218,-0.1262,-0.1314,-0.1329,-0.1338,-0.1284,-0.1373,-0.1369,-0.1366,-0.1204,-0.1185,-0.1168,0,0,0,0,0,0,-0.0882,-0.0964,-0.1007,-0.099,-0.1031,-0.1099,-0.1077,-0.1131,-0.116,-0.1163,-0.1243,-0.1256,-0.125,-0.1293,-0.1308,-0.1277,-0.1349,-0.1347,-0.1224,-0.1206,-0.1191,-0.1133,-0.1376,0,0,0,0,0,-0.0859,-0.0862,-0.0943,-0.092,-0.0936,-0.1009,-0.1021,-0.1063,-0.1107,-0.1122,-0.1171,-0.1214,-0.1239,-0.1244,-0.1279,-0.1254,-0.1244,-0.1227,-0.1212,-0.1198,-0.1158,-0.1089,-0.1062,-0.1351,-0.1352,-0.1352,0,0,-0.0799,-0.0849,-0.0843,-0.0898,-0.0929,-0.0921,-0.1018,-0.1019,-0.1007,-0.1125,-0.1106,-0.1167,-0.1226,-0.1206,-0.1204,-0.1232,-0.1113,-0.1194,-0.1182,-0.1148,-0.1082,-0.1053,-0.1028,-0.1349,-0.1349,-0.135,0,0,-0.0681,-0.0732,-0.07,-0.0732,-0.0784,-0.0831,-0.083,-0.0897,-0.0918,-0.0922,-0.1002,-0.1017,-0.1065,-0.1081,-0.1099,-0.1018,-0.1045,-0.1044,-0.0905,-0.0838,-0.0812,-0.0789,-0.0737,-0.0711,-0.1024,-0.1024,-0.1024,0,-0.0602,-0.0603,-0.0684,-0.0667,-0.0678,-0.0784,-0.0748,-0.0773,-0.0834,-0.0831,-0.0889,-0.093,-0.0991,-0.0945,-0.0929,-0.0976,-0.0953,-0.0965,-0.0812,-0.079,-0.0769,-0.0721,-0.0695,-0.1015,-0.1016,-0.1017,-0.1018,0,-0.0486,-0.0484,-0.0456,-0.0487,-0.0495,-0.0482,-0.0545,-0.0547,-0.06,-0.0636,-0.062,-0.0698,-0.0716,-0.0744,-0.0815,-0.0708,-0.0744,-0.0807,-0.0845,-0.0728,-0.0687,-0.0662,-0.1002,-0.1006,-0.1008,-0.1011,0,0,-0.0335,-0.0371,-0.0364,-0.0361,-0.0413,-0.0408,-0.0371,-0.0376,-0.0339,-0.0391,-0.0331,-0.0387,-0.0439,-0.0462,-0.0546,-0.0498,-0.0358,-0.058,-0.0581,-0.0504,-0.0202,-0.0238,-0.0216,-0.0389,-0.0384,-0.038,-0.0229,0,-0.0229,-0.0175,-0.0218,-0.0149,-0.0136,-0.0204,-0.0162,-0.0172,-0.0198,-0.0162,-0.0216,-0.0204,-0.0327,-0.0334,-0.0297,-0.0359,-0.0285,-0.0392,-0.0347,-0.0345,-0.037,-0.0185,-0.0214,-0.0082,-0.0205,-0.0201,-0.0198,0,-0.0129,-0.0116,-0.0041,-0.0027,-0.0019,0.0016,0.0049,0.0077,0.0098,0.0084,0.0103,0.0041,0.0085,-0.004,0.0007,-0.0057,-0.0091,-0.0132,-0.0129,-0.0197,-0.0333,-0.0222,-0.0033,-0.0254,-0.0161,-0.0164,-0.0167,0,-0.0044,0.0002,0.0059,0.0063,0.0077,0.0117,0.0134,0.0154,0.0197,0.0252,0.0291,0.0311,0.0324,0.0311,0.0199,0.0127,0.0255,0.0138,0.0092,0.0087,0.0056,0.0041,0.0063,0.0235,0.0235,0.0234,0.0234,0,0.0039,0.0088,0.0104,0.0132,0.0223,0.0207,0.031,0.0327,0.0386,0.0473,0.0429,0.05,0.0416,0.0437,0.0335,0.0311,0.0376,0.0186,0.0157,0.0112,0.01,-0.0106,-0.0254,0.024,0.0238,0.0237,0.0236,0,0.0104,0.0113,0.0183,0.023,0.0256,0.0321,0.04,0.0472,0.0517,0.0637,0.0667,0.069,0.0727,0.0641,0.0622,0.049,0.0346,0.0426,0.037,0.0332,0.0049,-0.0088,-0.0047,-0.014,0.0428,0.0429,0.0429,0,0.0132,0.0171,0.0256,0.0305,0.0327,0.0413,0.0472,0.053,0.0606,0.0746,0.0817,0.0894,0.0965,0.0931,0.0747,0.0652,0.0414,0.0499,0.0354,0.0103,-0.0071,-0.0165,-0.0254,0.0381,0.0381,0.0381,0.0381,0,0.0181,0.0214,0.0271,0.0371,0.0445,0.054,0.0629,0.0716,0.0806,0.0937,0.1103,0.1193,0.115,0.1073,0.0898,0.0748,0.0323,0.0494,0.0272,-0.004,-0.0171,-0.0301,0.0184,0.0381,0.0381,0.0381,0.0381,0.0381,0.0212,0.0261,0.0333,0.0431,0.0525,0.0645,0.075,0.0876,0.1053,0.1307,0.1341,0.1601,0.1361,0.1141,0.0866,0.034,0.035,0.0155,0.0035,-0.0015,-0.0171,0.0313,0.0432,0.0433,0.0433,0.0433,0.0433,0,0.0231,0.0285,0.0379,0.0502,0.0616,0.066,0.0837,0.0986,0.1229,0.1557,0.1767,0.1904,0.152,0.1095,0.0392,-0.0023,-0.0215,-0.028,-0.0438,-0.049,-0.0012,-0.0088,-0.0121,-0.0121,-0.0121,-0.0121,-0.012,-0.012,0.024,0.032,0.0369,0.054,0.0641,0.0822,0.0941,0.1206,0.1492,0.198,0.2295,0.2472,0.2141,0.0708,-0.0291,-0.0549,-0.0848,-0.0894,-0.1031,-0.0775,-0.0745,-0.0717,-0.0821,-0.1008,-0.1009,-0.1474,-0.1479,-0.1483]}],[{"header":{"parameterUnit":"m.s-1","parameterCategory":2,"la1":30.2991,"la2":30.254,"lo1":-89.0895,"lo2":-89.0444,"dy":0.0017,"dx":0.0017,"nx":28,"ny":28,"refTime":"2023-10-21T03:00:00:Z","depth":"2","parameterNumber":2,"parameterNumberName":"U-component_of_CURRENTS"},"data":[0,0,0,0,0,0,0,0,0,0,0,0,0,0,0,0,0,0,0,0,0,0,0,0,0,0,0,0,0,0,0,0,0,0,0,0,0,0,0,0,0,0,0,0,0,0,0,0,0,0,0,0,0,0,0,0,0,0,0.2509,0.251,0,0.2568,0.2568,0.2568,0.2686,0.269,0.2693,0.2696,0.2803,0.2803,0.2803,0,0,0,0,0,0,0,0,0,0,0,0,0,0.2409,0.241,0.2509,0.251,0.2512,0.2568,0.2568,0.2568,0.2686,0.269,0.2693,0.2697,0.2803,0.2803,0.2803,0,0,0,0,0,0,0,0,0,0,0,0,0,0.245,0.241,0.2509,0.2584,0.2592,0.2568,0.2568,0.2568,0.2685,0.269,0.2694,0.2699,0.2803,0.2803,0.2803,0.2708,0,0,0.2803,0.2803,0,0,0,0,0,0,0,0,0.2448,0.2453,0.2571,0.2579,0.2588,0.2632,0.2573,0.262,0.2684,0.2641,0.2696,0.2701,0.2752,0.2757,0.2745,0.2713,0.2718,0.2803,0.2803,0.2803,0.2803,0,0,0,0,0,0,0,0.2445,0.2451,0.2524,0.2573,0.2583,0.2585,0.2595,0.2581,0.2664,0.2645,0.2656,0.2674,0.2757,0.2744,0.2748,0.272,0.2803,0.2803,0.2803,0.2802,0.2794,0.2794,0,0,0,0,0,0,0.2454,0.2448,0.2522,0.2526,0.2537,0.2583,0.2595,0.2606,0.2663,0.2679,0.267,0.268,0.2742,0.2748,0.2753,0.2856,0.2803,0.2802,0.2802,0.2794,0.2794,0.2794,0,0,0,0,0,0,0.2451,0.246,0.252,0.2496,0.2505,0.2582,0.2592,0.2605,0.2644,0.2684,0.2699,0.2704,0.2746,0.2753,0.2796,0.2854,0.2802,0.2802,0.2795,0.2794,0.2794,0.2926,0,0,0,0,0,0,0.2448,0.2458,0.2465,0.2496,0.2507,0.255,0.2589,0.2603,0.265,0.2664,0.2716,0.2728,0.275,0.2796,0.2796,0.2852,0.2802,0.2795,0.2794,0.2794,0.2922,0.2931,0.2938,0,0,0,0,0,0.2444,0.2464,0.2465,0.2475,0.2516,0.2552,0.2557,0.2621,0.2647,0.267,0.2711,0.2729,0.2795,0.2796,0.2796,0.2854,0.2795,0.2794,0.2794,0.2919,0.2929,0.2938,0,0,0,0,0,0,0.244,0.2479,0.2482,0.2515,0.2543,0.2577,0.2612,0.2628,0.2668,0.2696,0.2723,0.2737,0.2806,0.2779,0.278,0.2841,0.2797,0.2796,0.2891,0.2901,0.2909,0.291,0.2802,0,0,0,0,0,0.2431,0.2452,0.2484,0.251,0.2532,0.2561,0.2583,0.2619,0.2659,0.2684,0.2716,0.2744,0.2784,0.2808,0.2828,0.284,0.2858,0.2871,0.2879,0.2887,0.2882,0.2971,0.2989,0.2793,0.2793,0.2793,0,0,0.2452,0.246,0.2485,0.2508,0.2538,0.2575,0.2588,0.264,0.2683,0.2683,0.2755,0.2778,0.2794,0.2848,0.2872,0.2846,0.2952,0.2886,0.2894,0.2884,0.2973,0.2993,0.3011,0.2792,0.2792,0.2792,0,0,0.2481,0.2499,0.2522,0.2543,0.2582,0.2604,0.2625,0.2667,0.2713,0.2761,0.2789,0.2836,0.2874,0.2905,0.2924,0.2962,0.2998,0.297,0.3014,0.3102,0.3121,0.3137,0.3202,0.3223,0.2968,0.2968,0.2968,0,0.2494,0.2521,0.2537,0.2555,0.2581,0.2624,0.2655,0.2702,0.2752,0.2788,0.2815,0.2893,0.2907,0.2979,0.3005,0.2989,0.3038,0.2995,0.3121,0.3137,0.3152,0.3214,0.3236,0.2974,0.2973,0.2973,0.2972,0,0.2519,0.2561,0.2587,0.2618,0.2636,0.2686,0.2737,0.2795,0.285,0.2883,0.2979,0.3001,0.3051,0.3064,0.3056,0.3152,0.3155,0.3139,0.3116,0.3181,0.324,0.3261,0.2983,0.2981,0.2979,0.2978,0,0,0.2523,0.259,0.2616,0.263,0.2675,0.2699,0.2787,0.2863,0.2941,0.3007,0.3098,0.3155,0.3169,0.3184,0.3183,0.324,0.3389,0.3237,0.3238,0.3333,0.3595,0.348,0.3491,0.3425,0.3429,0.3432,0.3603,0,0.2547,0.2591,0.2623,0.2694,0.271,0.2779,0.2858,0.2928,0.3003,0.3108,0.3167,0.3253,0.3218,0.3264,0.3321,0.337,0.3446,0.3343,0.3486,0.3489,0.3408,0.3511,0.3231,0.335,0.3622,0.3626,0.3628,0,0.2531,0.2575,0.2615,0.2713,0.2738,0.2787,0.2902,0.2987,0.3134,0.3225,0.3314,0.3344,0.3437,0.3409,0.3553,0.3503,0.3558,0.3592,0.36,0.3455,0.3412,0.332,0.3377,0.3662,0.3659,0.3657,0.3655,0,0.2447,0.2565,0.259,0.2615,0.2731,0.2787,0.2884,0.3003,0.3106,0.3291,0.3378,0.3486,0.3573,0.3655,0.3697,0.366,0.3862,0.3818,0.3769,0.3762,0.3524,0.3487,0.3946,0.3946,0.3945,0.3945,0.3945,0,0.2399,0.2468,0.2566,0.2589,0.2693,0.2752,0.2894,0.303,0.3197,0.3318,0.3422,0.3514,0.3648,0.374,0.3773,0.3835,0.3936,0.3798,0.3809,0.3557,0.3524,0.3774,0.3751,0.3951,0.395,0.3949,0.3948,0,0.2321,0.2379,0.2475,0.2615,0.2635,0.2737,0.2938,0.3047,0.3213,0.3372,0.3437,0.3597,0.3725,0.3813,0.3966,0.3929,0.3995,0.3996,0.3678,0.3645,0.3818,0.38,0.396,0.3958,0.3956,0.3954,0.3953,0,0.2317,0.23,0.247,0.2554,0.2637,0.2779,0.2862,0.3058,0.3148,0.3386,0.343,0.3606,0.368,0.3855,0.386,0.3928,0.4005,0.3696,0.3543,0.383,0.3826,0.381,0.3796,0.3297,0.3291,0.3285,0.3281,0,0.2308,0.2351,0.2428,0.2556,0.2663,0.2784,0.2895,0.2945,0.3148,0.3268,0.3362,0.343,0.36,0.3528,0.3639,0.3624,0.3651,0.3583,0.4022,0.3314,0.3213,0.3205,0.3212,0.3232,0.3237,0.3241,0.3243,0.3245,0.2344,0.2403,0.2445,0.2556,0.2674,0.2692,0.2726,0.2809,0.2884,0.296,0.3125,0.3167,0.3265,0.3249,0.3193,0.3173,0.3401,0.3264,0.3279,0.33,0.3169,0.3068,0.3036,0.3039,0.3042,0.3045,0.3048,0,0.2287,0.2328,0.2437,0.2544,0.2599,0.2673,0.2657,0.2616,0.2596,0.2737,0.279,0.263,0.2629,0.2747,0.2638,0.2651,0.2601,0.2555,0.2471,0.2524,0.2569,0.2397,0.2062,0.2058,0.2055,0.2052,0,0,0.2308,0.2318,0.2313,0.2353,0.2447,0.2384,0.2335,0.2262,0.2262,0.2224,0.2268,0.2462,0.2644,0.2293,0.2278,0.215,0.2302,0.2068,0.2869,0.282,0.286,0.3004,0.2802,0,0,0,0,0]},{"header":{"parameterUnit":"m.s-1","parameterCategory":2,"la1":30.2991,"la2":30.254,"lo1":-89.0895,"lo2":-89.0444,"dy":0.0017,"dx":0.0017,"nx":28,"ny":28,"refTime":"2023-10-21T03:00:00:Z","depth":"2","parameterNumber":3,"parameterNumberName":"V-component_of_CURRENTS"},"data":[0,0,0,0,0,0,0,0,0,0,0,0,0,0,0,0,0,0,0,0,0,0,0,0,0,0,0,0,0,0,0,0,0,0,0,0,0,0,0,0,0,0,0,0,0,0,0,0,0,0,0,0,0,0,0,0,0,0,0.0359,0.0359,0,0.0312,0.0311,0.031,0.0229,0.0227,0.0226,0.0225,0.0061,0.0058,0.0055,0,0,0,0,0,0,0,0,0,0,0,0,0,0.0411,0.041,0.0359,0.0359,0.0358,0.0312,0.0311,0.031,0.0229,0.0227,0.0226,0.0224,0.0062,0.0059,0.0055,0,0,0,0,0,0,0,0,0,0,0,0,0,0.0376,0.041,0.0359,0.0314,0.031,0.0312,0.0311,0.031,0.0229,0.0227,0.0225,0.0223,0.0063,0.0059,0.0054,0.0065,0,0,0.004,0.0038,0,0,0,0,0,0,0,0,0.0378,0.0374,0.0321,0.0317,0.0312,0.0276,0.027,0.0223,0.023,0.0257,0.0225,0.0223,0.0125,0.0116,0.0109,0.0057,0.005,0.004,0.0037,0.0035,0.0033,0,0,0,0,0,0,0,0.0381,0.0376,0.0338,0.0321,0.0316,0.0307,0.03,0.0261,0.0199,0.0255,0.0249,0.0248,0.0121,0.0114,0.0104,0.0048,0.004,0.0035,0.0033,0.0031,-0.0037,-0.0036,0,0,0,0,0,0,0.0392,0.0378,0.0339,0.0337,0.0344,0.0308,0.0299,0.0288,0.0202,0.0188,0.025,0.0245,0.0123,0.011,0.0098,0.0067,0.0035,0.003,0.0028,-0.0038,-0.0037,-0.0035,0,0,0,0,0,0,0.0393,0.0389,0.0341,0.0359,0.0352,0.0309,0.0297,0.0288,0.0267,0.02,0.0183,0.0237,0.0121,0.0105,0.0058,0.0061,0.0028,0.0024,-0.0039,-0.0037,-0.0036,0.0029,0,0,0,0,0,0,0.0395,0.0389,0.0385,0.0359,0.0352,0.0334,0.0299,0.0289,0.0271,0.0263,0.0184,0.0167,0.0118,0.0066,0.0053,0.0054,0.002,-0.004,-0.0038,-0.0036,0.0025,0.0032,0.0038,0,0,0,0,0,0.0396,0.0394,0.0385,0.0381,0.0347,0.0335,0.033,0.0291,0.0273,0.0265,0.0216,0.0169,0.0069,0.0063,0.0048,0.0047,-0.0041,-0.0039,-0.0037,0.0022,0.0031,0.0038,0,0,0,0,0,0,0.0418,0.0385,0.0374,0.0363,0.0349,0.0321,0.0308,0.0296,0.0255,0.0243,0.0177,0.0158,0.0115,0.0083,0.0077,0.0037,0.0009,0.0008,0.0059,0.0066,0.0072,0.0098,0.0016,0,0,0,0,0,0.0425,0.041,0.0387,0.0381,0.0367,0.0342,0.0333,0.0318,0.0283,0.0262,0.0213,0.0164,0.0119,0.0093,0.0047,0.0029,-0.0005,0.0023,0.0029,0.0035,0.0048,-0.0002,0.0001,-0.0028,-0.0028,-0.0028,0,0,0.0441,0.0416,0.0413,0.0385,0.0362,0.0362,0.0328,0.0318,0.0324,0.0252,0.0227,0.0176,0.0118,0.0089,0.0069,0.0059,0.0028,0.0038,0.0043,0.0053,0.0001,0.0003,0.0006,-0.0026,-0.0027,-0.0027,0,0,0.0457,0.043,0.0419,0.0408,0.0385,0.0376,0.0375,0.035,0.0332,0.0315,0.0265,0.0225,0.0159,0.0126,0.0099,0.012,0.0058,0.0104,0.0159,0.011,0.0112,0.0113,0.008,0.0078,0.0114,0.0114,0.0114,0,0.0463,0.0459,0.042,0.0409,0.0415,0.0384,0.0399,0.0381,0.0353,0.0354,0.0309,0.0235,0.0179,0.0158,0.0162,0.0133,0.01,0.013,0.0117,0.0118,0.0117,0.0084,0.008,0.0117,0.0117,0.0117,0.0116,0,0.0488,0.0476,0.0467,0.0446,0.0451,0.0455,0.0441,0.0438,0.0416,0.0407,0.0373,0.0299,0.0264,0.0235,0.0198,0.0184,0.0158,0.0123,0.0096,0.0124,0.0087,0.0082,0.0122,0.0121,0.012,0.0119,0,0,0.0496,0.0485,0.0476,0.0498,0.0477,0.0498,0.0498,0.0509,0.0539,0.0474,0.0492,0.0403,0.0373,0.0343,0.0291,0.0246,0.021,0.0193,0.0189,0.0159,0.011,0.0081,0.0072,0.0165,0.0164,0.0164,0.0087,0,0.0516,0.0539,0.052,0.0563,0.0585,0.0568,0.0592,0.0605,0.059,0.0598,0.0514,0.0502,0.0412,0.0405,0.034,0.025,0.02,0.0235,0.009,0.0086,0.0054,0.0066,0.0081,0.0013,0.0082,0.0081,0.008,0,0.055,0.0561,0.0619,0.0662,0.0668,0.0696,0.0758,0.078,0.0771,0.075,0.0705,0.0646,0.0581,0.0495,0.0336,0.0361,0.0246,0.0159,0.0153,0.0101,0.0047,-0.0006,0.0,0.0071,0.0072,0.0073,0.0073,0,0.0628,0.0636,0.0704,0.0715,0.0753,0.0785,0.0813,0.0839,0.0891,0.0864,0.0891,0.0771,0.0741,0.0569,0.0387,0.0361,0.0207,0.0147,0.001,0.0007,-0.0019,-0.0023,0.0028,0.0028,0.0028,0.0029,0.0029,0,0.0675,0.0712,0.0754,0.0785,0.0887,0.0891,0.0989,0.0994,0.1035,0.1122,0.0995,0.1013,0.0756,0.0639,0.0437,0.0221,0.0241,0.0026,-0.0016,0.0005,0.0004,0.0023,0.0023,0.0026,0.0026,0.0027,0.0027,0,0.0748,0.076,0.084,0.0895,0.0931,0.1015,0.1108,0.1184,0.1204,0.1311,0.1315,0.1205,0.1031,0.078,0.051,0.0315,0.0097,0.0012,0.0063,0.0028,-0.0086,-0.0081,-0.0155,-0.0157,-0.0158,-0.0159,-0.016,0,0.0789,0.0849,0.0947,0.1005,0.1026,0.1135,0.1224,0.1269,0.1359,0.1436,0.1501,0.1373,0.1272,0.0862,0.0486,0.0129,0.0093,-0.0072,-0.0132,-0.0071,-0.0106,-0.0098,-0.0092,-0.0138,-0.0139,-0.014,-0.014,0,0.0869,0.0912,0.0973,0.1122,0.1217,0.1328,0.1449,0.1547,0.1634,0.1704,0.1757,0.1686,0.1295,0.0899,0.0421,0.0181,-0.0021,-0.0097,-0.0045,-0.0092,-0.0062,-0.0093,-0.0086,-0.0146,-0.0145,-0.0145,-0.0144,-0.0144,0.0927,0.0995,0.1105,0.1244,0.1361,0.1515,0.1614,0.173,0.1879,0.1973,0.1909,0.1772,0.1378,0.0702,0.0331,-0.0068,-0.0072,-0.0219,-0.0214,-0.021,-0.0192,-0.0166,-0.0265,-0.0265,-0.0265,-0.0265,-0.0266,0,0.1019,0.1087,0.1219,0.1371,0.1522,0.1564,0.1769,0.1849,0.1999,0.2027,0.2006,0.1601,0.1178,0.0747,0.0142,-0.0206,-0.0228,-0.0302,-0.0253,-0.0246,-0.0241,-0.0222,-0.0305,-0.0306,-0.0306,-0.0307,0,0,0.1047,0.1172,0.125,0.1497,0.1602,0.1788,0.1898,0.1989,0.2042,0.2021,0.1913,0.1743,0.1247,0.0816,0.0353,0.0024,-0.0028,-0.0041,0.002,0.0139,0.015,-0.0171,-0.0133,0,0,0,0,0]}],[{"header":{"parameterUnit":"m.s-1","parameterCategory":2,"la1":30.2991,"la2":30.254,"lo1":-89.0895,"lo2":-89.0444,"dy":0.0017,"dx":0.0017,"nx":28,"ny":28,"refTime":"2023-10-21T03:00:00:Z","depth":"4","parameterNumber":2,"parameterNumberName":"U-component_of_CURRENTS"},"data":[0,0,0,0,0,0,0,0,0,0,0,0,0,0,0,0,0,0,0,0,0,0,0,0,0,0,0,0,0,0,0,0,0,0,0,0,0,0,0,0,0,0,0,0,0,0,0,0,0,0,0,0,0,0,0,0,0,0,0.1206,0.1207,0,0.1247,0.1248,0.1248,0.1233,0.1232,0.1231,0.123,0.129,0.1292,0.1295,0,0,0,0,0,0,0,0,0,0,0,0,0,0.1114,0.1115,0.1206,0.1207,0.1207,0.1247,0.1248,0.1248,0.1233,0.1232,0.1231,0.123,0.1289,0.1292,0.1295,0,0,0,0,0,0,0,0,0,0,0,0,0,0.1153,0.1116,0.1206,0.1206,0.1207,0.1247,0.1248,0.1248,0.1233,0.1232,0.1231,0.123,0.1288,0.1292,0.1295,0.1339,0,0,0.1306,0.1307,0,0,0,0,0,0,0,0,0.115,0.1156,0.1205,0.1206,0.1207,0.1235,0.1237,0.128,0.1233,0.1221,0.123,0.1229,0.1276,0.128,0.1287,0.1342,0.1345,0.1306,0.1308,0.131,0.1311,0,0,0,0,0,0,0,0.1148,0.1154,0.122,0.1206,0.1207,0.1204,0.1208,0.1245,0.1253,0.1222,0.1221,0.1229,0.1276,0.1284,0.1289,0.1345,0.1306,0.1309,0.1311,0.1312,0.1495,0.1498,0,0,0,0,0,0,0.1148,0.1152,0.1219,0.1222,0.1177,0.1207,0.1211,0.1226,0.1252,0.1256,0.123,0.1229,0.1279,0.1285,0.1291,0.1392,0.131,0.1313,0.1315,0.1493,0.1496,0.1499,0,0,0,0,0,0,0.1146,0.1154,0.1217,0.1188,0.1196,0.121,0.1226,0.1227,0.125,0.1259,0.1262,0.1253,0.1278,0.1286,0.1351,0.1393,0.1314,0.1317,0.1489,0.1494,0.1498,0.1565,0,0,0,0,0,0,0.1143,0.1153,0.1181,0.1189,0.1198,0.1252,0.1228,0.1229,0.1256,0.1255,0.128,0.1283,0.1278,0.1346,0.1354,0.1396,0.132,0.1486,0.1491,0.1496,0.1559,0.1571,0.1581,0,0,0,0,0,0.114,0.1161,0.1182,0.1191,0.123,0.1253,0.1258,0.1261,0.1259,0.1276,0.1304,0.1283,0.1384,0.1351,0.136,0.1404,0.1483,0.149,0.1496,0.1555,0.1569,0.1581,0,0,0,0,0,0,0.1119,0.1163,0.1185,0.1216,0.1245,0.1251,0.1275,0.1279,0.1314,0.1326,0.1323,0.133,0.1395,0.1403,0.1366,0.1475,0.143,0.1438,0.1471,0.1485,0.1495,0.1479,0.1323,0,0,0,0,0,0.1137,0.1165,0.1206,0.1227,0.1257,0.1277,0.1294,0.1302,0.1327,0.134,0.1367,0.1401,0.1429,0.1458,0.1484,0.1557,0.1559,0.1591,0.1602,0.1611,0.1607,0.1662,0.1677,0.152,0.152,0.1519,0,0,0.1126,0.1158,0.1171,0.1227,0.1256,0.1295,0.1284,0.1322,0.1346,0.1346,0.141,0.144,0.1455,0.1522,0.1554,0.1536,0.1662,0.1619,0.1627,0.1617,0.167,0.1685,0.1698,0.1524,0.1523,0.1522,0,0,0.1123,0.1166,0.1204,0.1241,0.1303,0.1318,0.1337,0.1386,0.1407,0.1471,0.1476,0.1535,0.1591,0.1614,0.1625,0.172,0.1709,0.174,0.1793,0.1847,0.1859,0.187,0.1902,0.1915,0.1755,0.1755,0.1755,0,0.1124,0.1164,0.1214,0.1266,0.1297,0.1333,0.1378,0.1405,0.1465,0.1497,0.15,0.1613,0.1624,0.1698,0.1726,0.1741,0.1768,0.1736,0.1859,0.187,0.188,0.1909,0.1923,0.1759,0.1759,0.1758,0.1758,0,0.1145,0.1194,0.1217,0.1297,0.1345,0.1378,0.1438,0.1493,0.1529,0.1555,0.1654,0.17,0.1767,0.1787,0.1778,0.1873,0.1868,0.1856,0.1817,0.1899,0.1925,0.1938,0.1765,0.1764,0.1762,0.1761,0,0,0.1112,0.1213,0.1225,0.1268,0.1364,0.1395,0.1469,0.1535,0.1583,0.1662,0.1737,0.1801,0.1852,0.1871,0.1904,0.1951,0.204,0.1944,0.1945,0.196,0.2161,0.2025,0.2026,0.2062,0.2064,0.2066,0.2153,0,0.1118,0.1193,0.1253,0.132,0.1371,0.1444,0.1498,0.1571,0.1641,0.1728,0.1796,0.1875,0.1876,0.1939,0.1992,0.2033,0.2078,0.2017,0.2092,0.2093,0.195,0.2037,0.2074,0.2162,0.2165,0.2167,0.2169,0,0.1132,0.1178,0.1247,0.134,0.1373,0.1425,0.154,0.1593,0.1714,0.1786,0.1903,0.1956,0.2067,0.2046,0.2168,0.2139,0.2155,0.217,0.2173,0.2025,0.1981,0.2064,0.2192,0.219,0.2188,0.2187,0.2185,0,0.1074,0.1177,0.122,0.1253,0.1365,0.1425,0.1489,0.1616,0.168,0.1843,0.1935,0.2057,0.2159,0.2204,0.2251,0.2226,0.2358,0.2324,0.2212,0.2203,0.2265,0.2252,0.2387,0.2386,0.2386,0.2386,0.2386,0,0.1041,0.1083,0.12,0.1219,0.1288,0.1398,0.1493,0.1585,0.1737,0.1827,0.1972,0.208,0.2208,0.2295,0.2297,0.2305,0.2406,0.2228,0.2222,0.2294,0.2284,0.2274,0.226,0.2389,0.2388,0.2388,0.2387,0,0.097,0.1037,0.1092,0.1212,0.1263,0.1314,0.1482,0.1547,0.172,0.1863,0.1925,0.2132,0.2255,0.2343,0.2431,0.2367,0.2371,0.2339,0.2422,0.2417,0.2164,0.2153,0.2219,0.2215,0.2212,0.2209,0.2207,0,0.0923,0.095,0.1068,0.1101,0.1161,0.1267,0.1341,0.1521,0.1609,0.1869,0.1927,0.2121,0.2239,0.228,0.236,0.2374,0.2336,0.2319,0.2218,0.2162,0.215,0.2144,0.2138,0.2201,0.22,0.22,0.2199,0,0.0838,0.0893,0.0941,0.1013,0.1093,0.1166,0.1298,0.1362,0.1575,0.1749,0.1901,0.1983,0.2131,0.2202,0.225,0.2238,0.2318,0.2283,0.2288,0.2194,0.2142,0.2131,0.2129,0.2187,0.2189,0.219,0.219,0,0.078,0.079,0.086,0.0925,0.0997,0.1048,0.1138,0.1272,0.1387,0.1689,0.1725,0.1942,0.2115,0.2132,0.2158,0.2164,0.2113,0.2018,0.2036,0.205,0.1951,0.1858,0.1821,0,0,0,0,0,0.0718,0.0736,0.0769,0.0826,0.0885,0.0942,0.1097,0.12,0.1429,0.1492,0.1611,0.1734,0.184,0.1935,0.1904,0.205,0.2097,0.2001,0.1989,0.2123,0.2136,0.2034,0,0,0,0,0,0,0.068,0.0714,0.0737,0.073,0.0752,0.0821,0.092,0.1077,0.1132,0.1367,0.1438,0.1601,0.1726,0.1837,0.1862,0.1887,0.1836,0.212,0.2115,0.2115,0.2127,0.2138,0.2037,0,0,0,0,0]},{"header":{"parameterUnit":"m.s-1","parameterCategory":2,"la1":30.2991,"la2":30.254,"lo1":-89.0895,"lo2":-89.0444,"dy":0.0017,"dx":0.0017,"nx":28,"ny":28,"refTime":"2023-10-21T03:00:00:Z","depth":"4","parameterNumber":3,"parameterNumberName":"V-component_of_CURRENTS"},"data":[0,0,0,0,0,0,0,0,0,0,0,0,0,0,0,0,0,0,0,0,0,0,0,0,0,0,0,0,0,0,0,0,0,0,0,0,0,0,0,0,0,0,0,0,0,0,0,0,0,0,0,0,0,0,0,0,0,0,0.0368,0.0367,0,0.0321,0.032,0.032,0.0313,0.0313,0.0314,0.0314,0.0253,0.0251,0.0249,0,0,0,0,0,0,0,0,0,0,0,0,0,0.042,0.0419,0.0368,0.0367,0.0367,0.0321,0.032,0.032,0.0313,0.0314,0.0314,0.0314,0.0253,0.0251,0.0249,0,0,0,0,0,0,0,0,0,0,0,0,0,0.0388,0.0419,0.0368,0.0357,0.0356,0.0321,0.032,0.0319,0.0313,0.0314,0.0314,0.0315,0.0254,0.0251,0.0248,0.0218,0,0,0.0239,0.0238,0,0,0,0,0,0,0,0,0.039,0.0386,0.036,0.0358,0.0356,0.0323,0.0316,0.0285,0.0313,0.033,0.0314,0.0315,0.0274,0.0269,0.026,0.0216,0.0213,0.0239,0.0237,0.0236,0.0235,0,0,0,0,0,0,0,0.0392,0.0388,0.035,0.0359,0.0357,0.0344,0.034,0.031,0.03,0.0328,0.0328,0.0321,0.0273,0.0263,0.0259,0.0212,0.0239,0.0236,0.0235,0.0233,0.0157,0.0156,0,0,0,0,0,0,0.0397,0.039,0.0351,0.0348,0.0374,0.0342,0.0338,0.0334,0.03,0.0296,0.0321,0.0321,0.0268,0.0262,0.0257,0.0249,0.0236,0.0233,0.0231,0.0157,0.0157,0.0156,0,0,0,0,0,0,0.0399,0.0395,0.0353,0.0368,0.0361,0.0341,0.0335,0.0332,0.033,0.0294,0.029,0.0323,0.0268,0.0261,0.0238,0.0246,0.0232,0.0229,0.0157,0.0157,0.0156,0.0215,0,0,0,0,0,0,0.0401,0.0395,0.0395,0.0368,0.0361,0.0342,0.0335,0.0331,0.0325,0.0325,0.0294,0.0289,0.0268,0.0243,0.0235,0.0242,0.0227,0.0158,0.0157,0.0157,0.0214,0.0217,0.022,0,0,0,0,0,0.0403,0.0407,0.0396,0.0391,0.0361,0.0342,0.0337,0.0325,0.0324,0.0325,0.0305,0.029,0.0235,0.024,0.0231,0.0237,0.0158,0.0157,0.0157,0.0212,0.0217,0.022,0,0,0,0,0,0,0.0424,0.0405,0.0393,0.0389,0.0369,0.0341,0.0338,0.0329,0.0313,0.0317,0.0286,0.0278,0.0262,0.0236,0.0243,0.0212,0.0194,0.0192,0.0239,0.0243,0.0246,0.0253,0.0224,0,0,0,0,0,0.0428,0.0432,0.0402,0.0399,0.0388,0.0363,0.0354,0.0348,0.0328,0.0322,0.03,0.0274,0.0249,0.0237,0.0211,0.0191,0.0146,0.0188,0.0191,0.0194,0.0192,0.0127,0.0124,0.0155,0.0155,0.0155,0,0,0.0436,0.0425,0.0426,0.0404,0.0386,0.0378,0.036,0.0353,0.0353,0.0316,0.031,0.0283,0.0246,0.023,0.0219,0.0211,0.0161,0.0193,0.0196,0.0192,0.0126,0.0123,0.0121,0.0154,0.0154,0.0154,0,0,0.0451,0.044,0.0445,0.043,0.0409,0.0396,0.0397,0.0372,0.0369,0.0353,0.033,0.0307,0.0269,0.0246,0.0228,0.0228,0.018,0.0222,0.0244,0.0182,0.0179,0.0176,0.0116,0.0107,0.0224,0.0224,0.0224,0,0.0452,0.046,0.0442,0.0436,0.0433,0.0407,0.0411,0.0397,0.0373,0.0369,0.036,0.0306,0.0276,0.0253,0.0255,0.0236,0.0191,0.0238,0.0186,0.0182,0.0178,0.0118,0.0107,0.0227,0.0227,0.0226,0.0226,0,0.0468,0.0472,0.0472,0.0463,0.0457,0.0458,0.0437,0.0435,0.0427,0.0408,0.0387,0.0344,0.0314,0.03,0.0276,0.0239,0.0215,0.0199,0.0181,0.0179,0.0115,0.0103,0.0231,0.023,0.0229,0.0228,0,0,0.0471,0.0483,0.0484,0.0496,0.0477,0.0481,0.0478,0.047,0.0481,0.0443,0.0439,0.0391,0.0368,0.0346,0.0314,0.0258,0.019,0.022,0.0216,0.0169,0.0049,0.0052,0.0038,0.0166,0.0164,0.0162,0.0017,0,0.0485,0.0509,0.0506,0.0531,0.0541,0.0526,0.053,0.052,0.0509,0.0496,0.0442,0.0425,0.0386,0.038,0.0317,0.0225,0.0161,0.0231,0.0051,0.0046,0.0055,0.0025,0.0157,0.0008,0.0005,0.0003,0.0001,0,0.0496,0.0518,0.0555,0.0584,0.0586,0.0603,0.0625,0.0624,0.0592,0.058,0.0544,0.0494,0.0421,0.0386,0.0219,0.0266,0.016,0.008,0.0072,0.0045,0.0026,0.0007,-0.0021,-0.0019,-0.0018,-0.0016,-0.0015,0,0.0524,0.0551,0.0598,0.0604,0.0626,0.0653,0.0668,0.0657,0.0675,0.0638,0.064,0.0537,0.05,0.035,0.0188,0.0197,-0.0012,-0.002,-0.0121,-0.0122,-0.0106,-0.0101,-0.0155,-0.0155,-0.0155,-0.0154,-0.0154,0,0.0539,0.0574,0.0628,0.0652,0.072,0.0709,0.0771,0.0769,0.0765,0.0783,0.0697,0.0675,0.0487,0.035,0.0189,-0.0002,-0.0015,-0.0129,-0.0163,-0.0078,-0.0068,-0.0115,-0.0108,-0.016,-0.0158,-0.0157,-0.0156,0,0.0557,0.0586,0.065,0.0709,0.0739,0.0792,0.086,0.0893,0.0883,0.0902,0.0892,0.0771,0.0589,0.0388,0.0136,0.002,-0.0177,-0.0245,-0.0142,-0.0166,-0.0248,-0.0237,-0.0372,-0.0373,-0.0374,-0.0375,-0.0375,0,0.0573,0.061,0.0712,0.0766,0.0805,0.0885,0.0937,0.096,0.0988,0.0955,0.0955,0.0801,0.0693,0.0347,0.0124,-0.0188,-0.0225,-0.0322,-0.0287,-0.0253,-0.0273,-0.026,-0.0247,-0.0377,-0.0377,-0.0378,-0.0378,0,0.0604,0.0648,0.0705,0.0819,0.0905,0.0989,0.106,0.109,0.1096,0.1096,0.1005,0.0827,0.0621,0.0347,0.0107,-0.0117,-0.0256,-0.0333,-0.0332,-0.03,-0.0261,-0.0277,-0.0263,-0.0381,-0.0381,-0.038,-0.038,0,0.0641,0.0687,0.0766,0.0865,0.0965,0.1044,0.1091,0.111,0.1135,0.1094,0.1054,0.0836,0.0708,0.0381,0.0152,-0.006,-0.0109,-0.0163,-0.0172,-0.0171,-0.0064,0.0018,-0.0057,0,0,0,0,0,0.066,0.0708,0.0801,0.0905,0.0997,0.1063,0.1138,0.1166,0.118,0.1132,0.1096,0.09,0.0571,0.0417,0.0205,0.0121,-0.0155,-0.0135,-0.0223,-0.0401,-0.0397,-0.0305,0,0,0,0,0,0,0.0677,0.0755,0.0795,0.0906,0.0984,0.1093,0.115,0.117,0.113,0.1111,0.0932,0.0861,0.0529,0.0697,0.0206,0.014,0.0058,-0.0288,-0.0292,-0.0403,-0.0399,-0.0396,-0.0301,0,0,0,0,0]}]]